Simultaneous Nadir Overpasses (SNOs) Predictions

Prediction of SNOs between LANDSAT-8 and NOAA-19 Satellite Orbit:

Table of predicted SNOs for the next 14.0 days since TLE Epoch: 4/16/2022
Index Date (LANDSAT-8) Time (LANDSAT-8) Lat,Lon (LANDSAT-8) SZA (LANDSAT-8 ) Date (NOAA-19) Time (NOAA-19) Lat,Lon (NOAA-19) SZA (NOAA-19 ) Distance(km) Time Diff (sec)
1 04/17/2022 21:01:05 80.76,-100.18 71.76 04/17/2022 21:00:52 80.74,-100.04 71.76 3.03 13
2 04/20/2022 02:34:49 -80.76, -3.64 109.00 04/20/2022 02:33:58 -80.76, -3.77 109.03 2.41 51
3 04/20/2022 03:24:16 80.73, 163.69 70.94 04/20/2022 03:24:52 80.75, 163.75 70.98 2.52 36
4 04/22/2022 08:57:59 -80.75, -99.49 109.77 04/22/2022 08:57:56 -80.75, -99.31 109.75 3.25 3
5 04/24/2022 14:31:41 80.77, -2.74 69.54 04/24/2022 14:30:51 80.76, -2.90 69.50 3.01 50
6 04/24/2022 15:21:09 -80.74, 164.59 110.53 04/24/2022 15:21:55 -80.75, 164.74 110.49 2.81 46
7 04/26/2022 20:54:51 80.75, -98.75 68.78 04/26/2022 20:54:50 80.76, -98.85 68.78 2.32 1
8 04/29/2022 02:28:34 -80.75, -2.10 111.90 04/29/2022 02:27:54 -80.76, -2.21 111.92 2.37 40



Historial Predications of SNOs between LANDSAT-8 and NOAA-19
